Location: Unspecified
(56.5167°N, 0.0000°E)
Time: 12:48:08
(UTC+02:00)

Cosmos 1674 - Visible Passes

Search period start: 08 May 2021 00:00
Search period end: 18 May 2021 00:00
Orbit: 494 x 515 km, 82.5° (Epoch: 07 May)

Date Brightness Start Highest point End Pass type
(mag) Time Alt. Az. Time Alt. Az. Time Alt. Az.
08 May 3.8 04:21:21 10° SSE 04:24:58 41° E 04:28:36 10° NNE visible
09 May 4.2 04:03:08 10° SSE 04:06:36 33° E 04:10:04 10° NNE visible
10 May 4.5 03:44:58 10° SSE 03:48:14 27° E 03:51:30 10° NNE visible
11 May 4.8 03:26:54 10° SE 03:29:53 22° E 03:32:53 10° NE visible
11 May 3.2 05:01:24 10° SSW 05:05:08 47° WNW 05:08:52 10° N visible
12 May 5.0 03:08:56 10° SE 03:11:33 18° E 03:14:11 10° NE visible
12 May 2.9 04:42:52 10° SSW 04:46:39 60° WNW 04:50:28 10° N visible
13 May 5.2 02:51:06 10° ESE 02:53:14 15° E 02:55:22 10° NE visible
13 May 2.7 04:24:30 11° SSW 04:28:12 76° WNW 04:32:03 10° N visible
14 May 5.3 02:33:31 10° ESE 02:34:56 12° E 02:36:20 10° ENE visible
14 May 2.7 04:06:18 12° S 04:09:46 85° ESE 04:13:37 10° NNE visible
15 May 2.9 03:48:04 14° S 03:51:20 68° E 03:55:09 10° NNE visible
16 May 3.2 03:29:50 14° S 03:32:56 53° E 03:36:40 10° NNE visible
17 May 3.6 03:11:35 14° SSE 03:14:31 42° E 03:18:08 10° NNE visible
17 May 4.1 04:46:57 10° WSW 04:50:10 25° WNW 04:53:24 10° N visible
